Вернуться в каталог

STARLINK-35156

АктивенСвязьSSO
NORAD 65607·PAYLOAD·🇺🇸 United States

Запущен Sep 13, 2025 с Cape Canaveral Space Force Station

Loading…

Ближайшие Пролёты (ближайшие 24 часа)

TLE

СвежийSource: CelesTrak SupGP

Эпоха: Sep 15, 2026, 03:26 UTC

1 65607C 25207R   26258.14354167  .00019950  00000+0  12128-2 0  2581
2 65607  97.2849 320.8812 0001124  74.7595 356.3401 15.10543026    14

Отслеживайте STARLINK-35156 в реальном времени с AllMySat

Download on the App Store